This is the latest recevied weather packets stored in our database for station/object DO7ZT-13. If no packets are shown the sender has not sent any weather packets the latest 10 day(s).
| Time | Temp. | Humidity | Pressure | Rain* | Wind** | Luminosity | Snow |
|---|---|---|---|---|---|---|---|
| 1777734303 | 23.89° C | 23% | 1019.3 hPa | 0 mm | 1.34 m/s, 141° | - | - |
| 1777734016 | 23.89° C | 23% | 1019.6 hPa | 0 mm | 0.89 m/s, 198° | - | - |
| 1777733703 | 23.89° C | 24% | 1019.6 hPa | 0 mm | 1.79 m/s, 165° | - | - |
| 1777733415 | 23.89° C | 24% | 1019.6 hPa | 0 mm | 1.34 m/s, 172° | - | - |
| 1777733102 | 23.89° C | 23% | 1019.9 hPa | 0 mm | 0.89 m/s, 264° | - | - |
| 1777732815 | 23.89° C | 26% | 1019.9 hPa | 0 mm | 0.89 m/s, 178° | - | - |
| 1777732502 | 23.89° C | 25% | 1019.9 hPa | 0 mm | 1.34 m/s, 144° | - | - |
| 1777732228 | 23.89° C | 22% | 1020 hPa | 0 mm | 0.89 m/s, 179° | - | - |
| 1777731915 | 23.89° C | 23% | 1020 hPa | 0 mm | 0.89 m/s, 146° | - | - |
| 1777731603 | 23.89° C | 23% | 1020 hPa | 0 mm | 0.89 m/s, 246° | - | - |
| 1777731315 | 23.89° C | 24% | 1020.2 hPa | 0 mm | 0.45 m/s, 155° | - | - |
| 1777731003 | 23.89° C | 25% | 1020.2 hPa | 0 mm | 0.45 m/s, 178° | - | - |
| 1777730715 | 23.89° C | 24% | 1020.2 hPa | 0 mm | 0.89 m/s, 215° | - | - |
| 1777730403 | 23.89° C | 24% | 1020.4 hPa | 0 mm | 0.89 m/s, 140° | - | - |
| 1777730115 | 22.78° C | 26% | 1020.4 hPa | 0 mm | 1.79 m/s, 200° | - | - |
| 1777729803 | 22.78° C | 27% | 1020.4 hPa | 0 mm | 0.89 m/s, 138° | - | - |
| 1777729515 | 22.78° C | 25% | 1020.6 hPa | 0 mm | 1.34 m/s, 139° | - | - |
| 1777729227 | 23.89° C | 24% | 1020.6 hPa | 0 mm | 0.45 m/s, 172° | - | - |
| 1777728915 | 23.89° C | 25% | 1020.6 hPa | 0 mm | 0.89 m/s, 177° | - | - |
| 1777728627 | 23.89° C | 27% | 1020.9 hPa | 0 mm | 1.34 m/s, 185° | - | - |
| 1777728316 | 23.89° C | 26% | 1020.9 hPa | 0 mm | 0.89 m/s, 258° | - | - |
| 1777728002 | 22.78° C | 25% | 1020.9 hPa | 0 mm | 0.45 m/s, 245° | - | - |
| 1777727715 | 22.78° C | 26% | 1021.1 hPa | 0 mm | 1.34 m/s, 184° | - | - |
| 1777727427 | 22.78° C | 28% | 1021.1 hPa | 0 mm | 1.34 m/s, 150° | - | - |
| 1777727115 | 22.78° C | 25% | 1021.1 hPa | 0 mm | 0.89 m/s, 174° | - | - |
* Rain latest hour (hover to see other rain measurements)
** Current wind speed in m/s (hover to see current wind gust speed)